Weather in Buchholz in der Nordheide

Germany     53°20′09″N   9°52′50″E
temp.,
°C
wind,
m/s
gust,
m/s
humid.,
%
clouds,
%
prec.,
mm/h
press.,
hPa
HPBL,
m
19 september, sun
sun1923:00+14ene4871100 0.0 1019533
02:00+13e376755 0.0 1019639
05:00+13e3663100 0.0 1019695
08:00+13ene3663100 0.0 1019759
11:00+14ene455441 0.0 10181310
14:00+16ene555163 0.0 10181507
17:00+14ene3561100 0.0 10181134
20:00+13ene3663100 0.0 1019373
20 september, mon
mon2023:00+12ene3772100 0.0 1020379
02:00+11ene2671100 0.0 1020236
05:00+11ene2671100 0.0 1021204
08:00+11ene2771100 0.0 1021323
11:00+12ene2564100 0.0 1022413
14:00+13ene2357100 0.0 1023778
17:00+14ene2359100 0.0 1023763
20:00+12nne2576100 0.1 1024186
21 september, tue
tue2123:00+11ne2681100 0.1 1025233
02:00+10n2482100 0.1 1026142
05:00+8n2381100 0.0 102671
08:00+9nnw1276100 0.0 102778
11:00+13nnw3452100 0.0 1028979
14:00+15nw3446100 0.0 10281459
17:00+14nw3455100 0.0 10281282
20:00+10wnw2677100 0.0 1029128
22 september, wed
wed2223:00+9wnw2481100 0.0 102979
02:00+8w2680100 0.0 1028128
05:00+9w2680100 0.0 1028204
08:00+9w2585100 0.0 1027188
11:00+14w347476 0.0 1027610
14:00+17wnw345840 0.0 10251084
17:00+17wnw44590 0.0 10241042
20:00+12wnw22870 0.0 102333
23 september, thu
thu2323:00+10w24950 0.0 102288
02:00+9wsw27971 0.0 1020161
05:00+9wsw310969 0.0 1019220
08:00+9wsw4128572 0.0 1017373
11:00+15wsw61361100 0.0 1016709
14:00+17w61066100 0.0 10141067
17:00+13w51089100 0.3 1013779
20:00+11wnw4109078 0.3 1014626